TimeEST,TemperatureF,Dew PointF,Humidity,Sea Level PressureIn,VisibilityMPH,Wind Direction,Wind SpeedMPH,Gust SpeedMPH,PrecipitationIn,Events,Conditions,WindDirDegrees,DateUTC
12:15 AM,35.6,35.6,100,29.96,2.0,ENE,4.6,-,0.08,Snow,Snow,60,2014-02-03 05:15:00
12:35 AM,33.8,33.8,100,29.94,1.0,ENE,4.6,-,0.12,Rain,Light Rain,70,2014-02-03 05:35:00
12:55 AM,33.8,33.8,100,29.94,1.0,North,3.5,-,0.14,Rain,Light Rain,350,2014-02-03 05:55:00
1:15 AM,33.8,33.8,100,29.93,1.0,NE,5.8,-,0.05,Rain,Light Rain,40,2014-02-03 06:15:00
1:35 AM,33.8,33.8,100,29.93,3.0,North,3.5,-,0.10,Rain,Light Rain,360,2014-02-03 06:35:00
1:55 AM,33.8,33.8,100,29.92,2.5,North,10.4,-,0.17,Rain,Light Rain,350,2014-02-03 06:55:00
2:15 AM,33.8,33.8,100,29.93,2.5,North,5.8,18.4,0.05,Rain,Light Rain,350,2014-02-03 07:15:00
2:35 AM,33.8,33.8,100,29.92,4.0,NNW,5.8,-,0.14,Rain,Rain,340,2014-02-03 07:35:00
2:55 AM,33.8,33.8,100,29.95,2.5,WNW,10.4,-,0.21,Rain,Light Rain,300,2014-02-03 07:55:00
3:15 AM,33.8,33.8,100,29.91,2.5,North,6.9,-,0.08,,Overcast,350,2014-02-03 08:15:00
3:35 AM,33.8,33.8,100,29.91,2.5,NNW,5.8,-,0.15,,Overcast,340,2014-02-03 08:35:00
3:55 AM,33.8,33.8,100,29.91,1.8,NNW,6.9,-,0.25,Snow,Light Snow,330,2014-02-03 08:55:00
4:15 AM,33.8,33.8,100,29.90,2.0,NW,3.5,-,0.07,Snow,Light Snow,310,2014-02-03 09:15:00
4:35 AM,33.8,33.8,100,29.88,4.0,NE,4.6,-,0.12,Snow,Light Snow,40,2014-02-03 09:35:00
4:55 AM,33.8,33.8,100,29.89,3.0,Calm,Calm,-,0.16,Snow,Light Snow,0,2014-02-03 09:55:00
5:15 AM,33.8,33.8,100,29.90,5.0,NNW,4.6,-,0.03,,Overcast,340,2014-02-03 10:15:00
5:35 AM,33.8,33.8,100,29.92,4.0,NW,3.5,-,0.06,Snow,Light Snow,320,2014-02-03 10:35:00
5:55 AM,33.8,33.8,100,29.93,3.0,NW,4.6,-,0.11,Snow,Light Snow,310,2014-02-03 10:55:00
6:15 AM,32.0,32.0,100,29.91,3.0,NNE,4.6,-,0.03,,Overcast,20,2014-02-03 11:15:00
6:35 AM,32.0,32.0,100,29.92,4.0,Calm,Calm,-,0.05,,Overcast,0,2014-02-03 11:35:00
6:55 AM,32.0,32.0,100,29.89,0.8,Calm,Calm,-,0.05,,Overcast,0,2014-02-03 11:55:00
7:15 AM,32.0,32.0,100,29.95,0.8,NW,9.2,-,N/A,,Overcast,320,2014-02-03 12:15:00
7:35 AM,32.0,32.0,100,29.97,0.2,NW,8.1,18.4,0.01,Fog,Fog,310,2014-02-03 12:35:00
7:55 AM,32.0,32.0,100,30.00,2.0,NW,13.8,18.4,0.01,,Overcast,310,2014-02-03 12:55:00
8:15 AM,32.0,32.0,100,30.01,1.2,NW,11.5,16.1,N/A,Snow,Light Snow,320,2014-02-03 13:15:00
8:30 AM,32.0,32.0,100,30.02,1.2,NW,4.6,18.4,N/A,Snow,Light Snow,320,2014-02-03 13:30:00
8:55 AM,32.0,32.0,100,30.07,1.5,NNW,10.4,-,N/A,Snow,Light Snow,330,2014-02-03 13:55:00
9:15 AM,32.0,32.0,100,30.08,3.0,NNW,8.1,19.6,N/A,,Overcast,340,2014-02-03 14:15:00
9:35 AM,32.0,32.0,100,30.09,3.0,NW,9.2,-,N/A,,Overcast,320,2014-02-03 14:35:00
9:55 AM,32.0,32.0,100,30.10,2.5,NNW,8.1,-,N/A,,Overcast,340,2014-02-03 14:55:00
10:15 AM,32.0,32.0,100,30.11,2.5,NNW,8.1,-,N/A,,Overcast,330,2014-02-03 15:15:00
10:35 AM,32.0,32.0,100,30.12,4.0,North,8.1,-,N/A,,Overcast,350,2014-02-03 15:35:00
10:55 AM,32.0,32.0,100,30.12,7.0,NNW,4.6,-,N/A,,Overcast,340,2014-02-03 15:55:00
11:15 AM,32.0,32.0,100,30.12,10.0,North,4.6,-,N/A,,Overcast,360,2014-02-03 16:15:00
11:35 AM,32.0,32.0,100,30.12,3.0,North,5.8,-,N/A,,Overcast,10,2014-02-03 16:35:00
11:55 AM,32.0,32.0,100,30.12,5.0,North,3.5,-,N/A,,Overcast,360,2014-02-03 16:55:00
12:15 PM,32.0,32.0,100,30.12,10.0,North,5.8,-,N/A,,Overcast,350,2014-02-03 17:15:00
12:35 PM,32.0,32.0,100,30.14,4.0,NNW,3.5,-,N/A,,Overcast,330,2014-02-03 17:35:00
12:55 PM,32.0,32.0,100,30.13,0.2,NW,6.9,-,N/A,Fog,Fog,320,2014-02-03 17:55:00
1:15 PM,32.0,32.0,100,30.12,0.2,NNW,6.9,-,N/A,Fog,Fog,330,2014-02-03 18:15:00
1:35 PM,32.0,32.0,100,30.12,0.2,NNW,3.5,-,N/A,Fog,Fog,340,2014-02-03 18:35:00
1:55 PM,32.0,32.0,100,30.12,3.0,North,6.9,-,N/A,,Overcast,350,2014-02-03 18:55:00
2:15 PM,32.0,32.0,100,30.12,0.5,North,4.6,-,N/A,Fog,Fog,350,2014-02-03 19:15:00
2:35 PM,32.0,32.0,100,30.12,0.2,North,4.6,-,N/A,Fog,Fog,360,2014-02-03 19:35:00
2:55 PM,32.0,32.0,100,30.12,2.0,North,4.6,-,N/A,,Overcast,350,2014-02-03 19:55:00
3:15 PM,32.0,32.0,100,30.14,0.2,NNW,3.5,-,N/A,Fog,Fog,340,2014-02-03 20:15:00
3:35 PM,32.0,32.0,100,30.15,1.5,North,4.6,-,N/A,,Overcast,350,2014-02-03 20:35:00
3:55 PM,32.0,32.0,100,30.15,1.8,North,5.8,-,N/A,,Overcast,350,2014-02-03 20:55:00
4:15 PM,32.0,32.0,100,30.16,0.2,NNE,5.8,-,N/A,Fog,Fog,20,2014-02-03 21:15:00
4:35 PM,32.0,32.0,100,30.16,0.5,NNE,4.6,-,N/A,Fog,Light Freezing Fog,20,2014-02-03 21:35:00
4:55 PM,32.0,32.0,100,30.17,0.2,North,3.5,-,N/A,Fog,Light Freezing Fog,10,2014-02-03 21:55:00
5:15 PM,32.0,32.0,100,30.18,0.2,NNW,4.6,-,N/A,Fog,Light Freezing Fog,340,2014-02-03 22:15:00
5:35 PM,32.0,32.0,100,30.17,0.2,NNE,6.9,-,N/A,Fog,Light Freezing Fog,20,2014-02-03 22:35:00
5:55 PM,32.0,32.0,100,30.17,0.2,NE,3.5,-,N/A,Fog,Light Freezing Fog,50,2014-02-03 22:55:00
6:15 PM,32.0,32.0,100,30.17,0.2,NNE,3.5,-,N/A,Fog,Light Freezing Fog,30,2014-02-03 23:15:00
6:35 PM,32.0,32.0,100,30.17,0.2,NE,3.5,-,N/A,Fog,Light Freezing Fog,40,2014-02-03 23:35:00
6:55 PM,32.0,32.0,100,30.18,0.2,NNE,3.5,-,N/A,Fog,Light Freezing Fog,30,2014-02-03 23:55:00
7:15 PM,30.2,30.2,100,30.19,0.5,NNE,3.5,-,N/A,Fog,Light Freezing Fog,20,2014-02-04 00:15:00
7:35 PM,30.2,30.2,100,30.19,0.2,Calm,Calm,-,N/A,Fog,Light Freezing Fog,0,2014-02-04 00:35:00
7:55 PM,30.2,30.2,100,30.20,0.2,East,3.5,-,N/A,Fog,Light Freezing Fog,100,2014-02-04 00:55:00
8:15 PM,30.2,30.2,100,30.21,0.2,Calm,Calm,-,N/A,Fog,Light Freezing Fog,0,2014-02-04 01:15:00
8:35 PM,32.0,32.0,100,30.21,0.2,Calm,Calm,-,N/A,Fog,Light Freezing Fog,0,2014-02-04 01:35:00
8:55 PM,32.0,32.0,100,30.21,0.2,Calm,Calm,-,N/A,Fog,Light Freezing Fog,0,2014-02-04 01:55:00
9:15 PM,32.0,32.0,100,30.21,0.5,ENE,3.5,-,N/A,Fog,Light Freezing Fog,70,2014-02-04 02:15:00
9:35 PM,32.0,32.0,100,30.21,0.5,NNE,4.6,-,N/A,Fog,Light Freezing Fog,20,2014-02-04 02:35:00
9:55 PM,32.0,32.0,100,30.21,0.2,North,4.6,-,N/A,Fog,Light Freezing Fog,350,2014-02-04 02:55:00
10:15 PM,32.0,32.0,100,30.20,0.2,NNE,4.6,-,N/A,Fog,Light Freezing Fog,20,2014-02-04 03:15:00
10:35 PM,30.2,30.2,100,30.19,0.2,NNE,5.8,-,N/A,Fog,Light Freezing Fog,20,2014-02-04 03:35:00
10:55 PM,30.2,30.2,100,30.18,0.2,NNE,5.8,-,N/A,Fog,Light Freezing Fog,30,2014-02-04 03:55:00
11:15 PM,30.2,30.2,100,30.19,0.2,NNE,5.8,-,N/A,Fog,Light Freezing Fog,20,2014-02-04 04:15:00
11:35 PM,30.2,30.2,100,30.19,0.2,NE,4.6,-,N/A,Fog,Light Freezing Fog,40,2014-02-04 04:35:00
11:55 PM,30.2,30.2,100,30.19,0.2,NNE,4.6,-,N/A,Fog,Light Freezing Fog,30,2014-02-04 04:55:00